Regional Weather Roundup
Issued by NWS

Home | Current Version | Previous Version | Graphics & Text | Print | Product List | Glossary On
Versions: 1 2 3 4 5 6 7 8 9 10 11 12 13 14 15 16 17 18 19 20 21 22 23 24 25 26 27 28 29 30 31 32 33 34 35 36 37 38 39 40 41 42 43 44 45 46 47 48 49 50
000
ASUS43 KFSD 181810
RWRSD

WEATHER ROUNDUP FOR SOUTH DAKOTA
NATIONAL WEATHER SERVICE SIOUX FALLS SD
1200 PM CST THU DEC 18 2014

NOTE: "FAIR" INDICATES FEW OR NO CLOUDS BELOW 12,000 FEET WITH NO
SIGNIFICANT WEATHER AND/OR OBSTRUCTIONS TO VISIBILITY.


SDZ001>005-009-010-012>017-181900-
NORTHWEST AND NORTH CENTRAL SOUTH DAKOTA

CITY           SKY/WX    TMP DP  RH WIND       PRES   REMARKS
BUFFALO          N/A     29  27  92 SW3       29.91S
FAITH            N/A     27  22  81 S14       30.03R WCI  16
MOBRIDGE       CLOUDY    24  22  91 S9        30.06F FOG     WCI  14
$$

SDZ012>016-024>037-041>051-057-063-072>074-181900-
SOUTHWEST AND SOUTH CENTRAL SOUTH DAKOTA

CITY           SKY/WX    TMP DP  RH WIND       PRES   REMARKS
RAPID CTY ARPT SUNNY     29  24  82 VRB3      30.00F
PIERRE         CLOUDY    25  22  88 SE6       30.10F WCI  18
CUSTER         SUNNY     36  19  50 VRB3      29.96F
ELLSWORTH AFB  SUNNY     34  26  72 S2        29.99F
PHILIP         CLOUDY    25  21  85 SW5       30.08S WCI  19
PINE RIDGE     SUNNY     32  22  66 W10       30.03F WCI  24
SPEARFISH      FAIR      37  27  65 W7        29.98F
WINNER         CLOUDY    28  23  81 S7        30.10F WCI  21
$$

SDZ004>011-016>023-039-040-181900-
NORTHEAST SOUTH DAKOTA

CITY           SKY/WX    TMP DP  RH WIND       PRES   REMARKS
ABERDEEN       CLOUDY    24  18  77 S9        30.17F WCI  14
WATERTOWN      CLOUDY    21  17  84 S8        30.16F WCI  11
$$

SDZ017-020-022-023-036>040-048>070-181900-
SOUTHEAST SOUTH DAKOTA

CITY           SKY/WX    TMP DP  RH WIND       PRES   REMARKS
SIOUX FALLS    CLOUDY    24  19  81 S7        30.20F WCI  16
HURON          CLOUDY    24  19  81 S9        30.18F WCI  14
CHAMBERLAIN    CLOUDY    25  22  89 S8        30.13F WCI  16
MITCHELL       CLOUDY    25  21  85 S10       30.20F WCI  15
YANKTON        PTSUNNY   27  21  80 SE7       30.21F WCI  19
$$

ABBREVIATIONS USED IN REMARKS
   TC - TEMPERATURE IN CELSIUS
  WCI - WIND CHILL INDEX
   HX - HEAT INDEX
  VSB - VISIBILITY



USA.gov is the U.S. government's official web portal to all federal, state and local government web resources and services.